TimeEDT,TemperatureF,Dew PointF,Humidity,Sea Level PressureIn,VisibilityMPH,Wind Direction,Wind SpeedMPH,Gust SpeedMPH,PrecipitationIn,Events,Conditions,WindDirDegrees,DateUTC
12:56 AM,59.0,53.1,81,29.78,10.0,WNW,4.6,-,N/A,,Clear,290,2013-06-13 04:56:00
1:56 AM,57.9,51.1,78,29.77,10.0,WNW,4.6,-,N/A,,Clear,300,2013-06-13 05:56:00
2:56 AM,57.9,52.0,81,29.77,10.0,WNW,5.8,-,N/A,,Clear,290,2013-06-13 06:56:00
3:56 AM,57.9,51.1,78,29.77,10.0,NW,4.6,-,N/A,,Clear,320,2013-06-13 07:56:00
4:56 AM,55.9,52.0,87,29.79,10.0,West,3.5,-,N/A,,Clear,260,2013-06-13 08:56:00
5:56 AM,55.9,52.0,87,29.81,10.0,West,3.5,-,N/A,,Clear,260,2013-06-13 09:56:00
6:56 AM,63.0,53.1,70,29.81,10.0,Calm,Calm,-,N/A,,Clear,0,2013-06-13 10:56:00
7:56 AM,64.9,52.0,63,29.81,10.0,NNW,3.5,-,N/A,,Clear,340,2013-06-13 11:56:00
8:56 AM,68.0,52.0,56,29.79,10.0,NNE,5.8,-,N/A,,Clear,20,2013-06-13 12:56:00
9:56 AM,66.0,53.1,63,29.80,10.0,Calm,Calm,-,N/A,,Partly Cloudy,0,2013-06-13 13:56:00
10:56 AM,64.9,54.0,68,29.80,10.0,South,8.1,-,N/A,,Overcast,180,2013-06-13 14:56:00
11:56 AM,62.1,54.0,75,29.81,10.0,SE,6.9,-,0.00,Rain,Light Rain,140,2013-06-13 15:56:00
12:56 PM,62.1,53.1,72,29.78,10.0,Variable,4.6,-,0.00,Rain,Light Rain,0,2013-06-13 16:56:00
1:56 PM,60.1,53.1,78,29.81,9.0,South,3.5,-,0.00,Rain,Light Rain,180,2013-06-13 17:56:00
2:56 PM,59.0,55.0,87,29.75,10.0,SE,5.8,-,0.04,Rain,Light Rain,130,2013-06-13 18:56:00
3:56 PM,60.1,55.0,83,29.76,10.0,East,4.6,-,0.00,,Overcast,90,2013-06-13 19:56:00
4:56 PM,60.1,53.1,78,29.73,10.0,East,9.2,-,N/A,,Overcast,100,2013-06-13 20:56:00
5:56 PM,59.0,54.0,83,29.70,10.0,East,5.8,-,0.00,Rain,Light Rain,80,2013-06-13 21:56:00
6:56 PM,57.9,53.1,84,29.69,10.0,East,5.8,-,0.00,,Overcast,90,2013-06-13 22:56:00
7:56 PM,57.9,52.0,81,29.68,10.0,East,6.9,-,N/A,,Overcast,80,2013-06-13 23:56:00
8:56 PM,57.0,52.0,83,29.69,10.0,East,5.8,-,N/A,,Overcast,80,2013-06-14 00:56:00
9:56 PM,55.9,53.1,90,29.69,3.0,ENE,11.5,-,0.12,Rain,Rain,60,2013-06-14 01:56:00
10:56 PM,55.0,53.1,93,29.64,10.0,ENE,11.5,-,0.01,,Overcast,60,2013-06-14 02:56:00
11:28 PM,55.4,53.6,94,29.61,4.0,ENE,11.5,-,0.03,Rain,Rain,60,2013-06-14 03:28:00
11:49 PM,55.4,53.6,94,29.61,5.0,NE,10.4,19.6,0.08,Rain,Rain,50,2013-06-14 03:49:00
11:56 PM,55.0,53.1,93,29.62,5.0,ENE,10.4,-,0.09,Rain,Rain,60,2013-06-14 03:56:00